Other Surface Observations
Issued by NWS

Home | Current Version | Previous Version | Text Only | Print | Product List | Glossary On
Versions: 1 2 3 4 5 6 7 8 9 10 11 12 13 14 15 16 17 18 19 20 21 22 23 24 25 26 27 28 29 30 31 32 33 34 35 36 37 38 39 40 41 42 43 44 45 46 47 48 49 50
000
SXUS52 KTAE 161118
OSOTAE
OSOTAE
North Florida/South Alabama/Southwest Georgia Weather Roundup
National Weather Service Tallahassee Florida
600 AM EST TUE JAN 16 2018

Note: "fair" indicates few or no clouds below 12,000 feet with no
significant weather and/or obstructions to visibility.

!FLZ017-115-028-034-025-161200
...North Florida...

CITY           SKY/WX    TMP DP  RH WIND       PRES   REMARKS
TALLAHASSEE    FAIR      30  27  88 CALM      30.42R
APALACHICOLA   FAIR      34  34 100 N3        30.41R
PERRY          FAIR      32  30  91 CALM      30.41F
CROSS CITY     FAIR      30  30  99 NE3       30.45S
JACKSONVILLE   FAIR      36  32  85 N5        30.42R WCI  32
$$

!FLZ112-006-005-002-011-161200
...Florida Panhandle...

CITY           SKY/WX    TMP DP  RH WIND       PRES   REMARKS
MARIANNA       FAIR      30  28  92 CALM      30.43R
BONIFAY        NOT AVBL
PANAMA CITY NW FAIR      32  29  88 CALM      30.42R
TYNDALL AFB    FAIR      39  33  78 E3        30.42S
TYND DRONE APT FAIR      36  32  85 CALM      30.43R
DE FUNIAK SPR  FAIR      38  29  71 E5        30.42R WCI  34
EGLIN AFB      CLEAR     36  30  79 E3        30.40S
DESTIN         FAIR      43  32  65 CALM      30.41R
HURLBURT       FAIR      37  35  89 NE3       30.39S
CRESTVIEW      FAIR      28  26  92 CALM      30.42S
PENSACOLA      FAIR      44  36  73 E6        30.39S WCI  41
$$

!ALZ063-066-161200
...South Alabama...

CITY           SKY/WX    TMP DP  RH WIND       PRES   REMARKS
DOTHAN         FAIR      34  29  82 SE3         N/A
OZARK CAIRNS   FAIR      30  25  83 E5        30.41S WCI  25
FT RUCKER HELI FAIR      26  26 100 NW3       30.41S
RUCKER HELI 3    N/A     35  29  79 CALM      30.41R
RUCKER HELI 2  FAIR      29  28  96 CALM      30.41R
FLORALA APT    FAIR      34  28  79 S3        30.43S
ANDALUSIA      FAIR      32  28  85 CALM      30.41R
TROY           FAIR      28  25  88 CALM      30.41S
EUFALA         FAIR      28  27  96 CALM      30.42R
MOBILE         CLOUDY    43  36  76 NE3       30.39R
$$

!GAZ120>161-161200
...Southwest and South Central Georgia...

CITY           SKY/WX    TMP DP  RH WIND       PRES   REMARKS
THOMASVILLE    FAIR      32  32 100 CALM      30.43R
BAINBRIDGE       N/A     32  32 100 CALM      30.44S
MOODY AFB      FAIR      30  28  92 NE3       30.42R
VALDOSTA       FAIR      28  26  92 CALM      30.43R
MOULTRIE       FAIR      32  30  93 CALM      30.43R
BLAKELY        NOT AVBL
ALBANY         FAIR      29  27  92 NW3       30.46R
TIFTON         FAIR      29  29 100 CALM      30.42S
FITZGERALD     FAIR      28  28 100 CALM      30.45S
CORDELE        FAIR      32  29  89 CALM      30.44S
AMERICUS       FAIR      28  23  80 CALM      30.45R
HOMERVILLE     FAIR      30  30 100 CALM      30.43S
$$

!GMZ750-755-770-775-161200
...Coastal and Buoy Obs...

STATION/POSITION TIME  TEMP    WIND        PRES    VSBY  WAVE
                       AIR SEA DIR/SP/G                  HT/PER
                 (UTC) (F)     (DEG/KT/KT) (MB)    (MI)  (FT/S)
KEATON BEACH     1100   34      50/  4/  5 1028.9F
CEDAR KEY        1100   41      40/  8/ 10 1029.0R
C TOWER          1100   53     100/ 12/ 15 1029.8R
APALACHICOLA BUO NOT AVBL
PANAMA CITY BUOY 1050   61 68   70/  6/  8 1028.5R         3/ 6
MOBILE BUOY      1100   62 73  130/ 10/ 14 1028.7
ORANGE BCH AL BU NOT AVBL
$$




USA.gov is the U.S. government's official web portal to all federal, state and local government web resources and services.